Location: Mesa
(33.4220°N, 111.8220°W)
Time: 16:02:52
(UTC-07:00)

N. Korean satellite - Pass Details

Date: 21 November 2019
Orbit: 456 x 506 km, 97.2° (Epoch: 05 December)

Event Time Altitude Azimuth Distance (km) Brightness Sun altitude
Rises 18:15:23 0° 194° (SSW) 2,546 10.7 -11.3°
Reaches altitude 10° 18:17:42 10° 208° (SSW) 1,679 10.0 -11.8°
Maximum altitude 18:20:42 24° 264° (W) 1,055 9.3 -12.4°
Drops below altitude 10° 18:23:45 10° 320° (NW) 1,709 9.7 -13.0°
Sets 18:26:08 0° 334° (NNW) 2,603 10.4 -13.5°
